owner,sensor,date,latitude,longitude,vertical_datum,sea_water_practical_salinity,qcFlag 
SCCF RECON,ioos:station:SCCF:18:1,2014-12-01T00:00:00Z,26.6955,-81.8138,1.58,0.89,1111122 
SCCF RECON,ioos:station:SCCF:18:1,2014-12-01T01:00:00Z,26.6955,-81.8138,1.68,0.75,1111122 
SCCF RECON,ioos:station:SCCF:18:1,2014-12-01T02:00:00Z,26.6955,-81.8138,1.73,0.7,1111122 
SCCF RECON,ioos:station:SCCF:18:1,2014-12-01T03:00:00Z,26.6955,-81.8138,1.78,0.81,1111122 
SCCF RECON,ioos:station:SCCF:18:1,2014-12-01T04:00:00Z,26.6955,-81.8138,1.843,0.89,1111122 
SCCF RECON,ioos:station:SCCF:18:1,2014-12-01T05:00:00Z,26.6955,-81.8138,1.86,0.83,1111122 
SCCF RECON,ioos:station:SCCF:18:1,2014-12-01T06:00:00Z,26.6955,-81.8138,1.792,0.76,1111122 
SCCF RECON,ioos:station:SCCF:18:1,2014-12-01T07:00:00Z,26.6955,-81.8138,1.7,0.57,1111122 
SCCF RECON,ioos:station:SCCF:18:1,2014-12-01T08:00:00Z,26.6955,-81.8138,1.64,0.58,1111122 
SCCF RECON,ioos:station:SCCF:18:1,2014-12-01T09:00:00Z,26.6955,-81.8138,1.59,0.57,1111122 
SCCF RECON,ioos:station:SCCF:18:1,2014-12-01T10:00:00Z,26.6955,-81.8138,1.54,0.61,1111122 
SCCF RECON,ioos:station:SCCF:18:1,2014-12-01T11:00:00Z,26.6955,-81.8138,1.5,0.54,1111122 
SCCF RECON,ioos:station:SCCF:18:1,2014-12-01T12:00:00Z,26.6955,-81.8138,1.47,0.55,1111122 
SCCF RECON,ioos:station:SCCF:18:1,2014-12-01T13:00:00Z,26.6955,-81.8138,1.51,0.54,1111122 
SCCF RECON,ioos:station:SCCF:18:1,2014-12-01T14:00:00Z,26.6955,-81.8138,1.586,0.75,1111122 
SCCF RECON,ioos:station:SCCF:18:1,2014-12-01T15:00:00Z,26.6955,-81.8138,1.643,0.82,1111122 
SCCF RECON,ioos:station:SCCF:18:1,2014-12-01T16:00:00Z,26.6955,-81.8138,1.663,0.67,1111122 
SCCF RECON,ioos:station:SCCF:18:1,2014-12-01T17:00:00Z,26.6955,-81.8138,1.67,0.57,1111122 
SCCF RECON,ioos:station:SCCF:18:1,2014-12-01T18:00:00Z,26.6955,-81.8138,1.65,0.52,1111122 
SCCF RECON,ioos:station:SCCF:18:1,2014-12-01T19:00:00Z,26.6955,-81.8138,1.6,0.55,1111122 
SCCF RECON,ioos:station:SCCF:18:1,2014-12-01T20:00:00Z,26.6955,-81.8138,1.534,0.5,1111122 
SCCF RECON,ioos:station:SCCF:18:1,2014-12-01T21:00:00Z,26.6955,-81.8138,1.47,0.51,1111122 
SCCF RECON,ioos:station:SCCF:18:1,2014-12-01T22:00:00Z,26.6955,-81.8138,1.442,0.52,1111122 
SCCF RECON,ioos:station:SCCF:18:1,2014-12-01T23:00:00Z,26.6955,-81.8138,1.441,0.54,1111122 
SCCF RECON,ioos:station:SCCF:18:1,2014-12-02T00:00:00Z,26.6955,-81.8138,1.5,0.68,1111122 
SCCF RECON,ioos:station:SCCF:18:1,2014-12-02T01:00:00Z,26.6955,-81.8138,1.608,0.89,1111122 
SCCF RECON,ioos:station:SCCF:18:1,2014-12-02T02:00:00Z,26.6955,-81.8138,1.69,0.66,1111122 
SCCF RECON,ioos:station:SCCF:18:1,2014-12-02T03:00:00Z,26.6955,-81.8138,1.73,0.72,1111122 
SCCF RECON,ioos:station:SCCF:18:1,2014-12-02T04:00:00Z,26.6955,-81.8138,1.79,1.05,1111122 
SCCF RECON,ioos:station:SCCF:18:1,2014-12-02T05:00:00Z,26.6955,-81.8138,1.83,0.91,1111122 
SCCF RECON,ioos:station:SCCF:18:1,2014-12-02T06:00:00Z,26.6955,-81.8138,1.82,0.99,1111122 
SCCF RECON,ioos:station:SCCF:18:1,2014-12-02T07:00:00Z,26.6955,-81.8138,1.75,0.7,1111122 
SCCF RECON,ioos:station:SCCF:18:1,2014-12-02T08:00:00Z,26.6955,-81.8138,1.67,0.57,1111122 
SCCF RECON,ioos:station:SCCF:18:1,2014-12-02T09:00:00Z,26.6955,-81.8138,1.6,0.6,1111122 
SCCF RECON,ioos:station:SCCF:18:1,2014-12-02T10:00:00Z,26.6955,-81.8138,1.554,0.62,1111122 
SCCF RECON,ioos:station:SCCF:18:1,2014-12-02T11:00:00Z,26.6955,-81.8138,1.5,0.61,1111122 
SCCF RECON,ioos:station:SCCF:18:1,2014-12-02T12:00:00Z,26.6955,-81.8138,1.464,0.6,1111122 
SCCF RECON,ioos:station:SCCF:18:1,2014-12-02T13:00:00Z,26.6955,-81.8138,1.48,0.59,1111122 
SCCF RECON,ioos:station:SCCF:18:1,2014-12-02T14:00:00Z,26.6955,-81.8138,1.56,0.74,1111122 
SCCF RECON,ioos:station:SCCF:18:1,2014-12-02T15:00:00Z,26.6955,-81.8138,1.621,1.02,1111122 
SCCF RECON,ioos:station:SCCF:18:1,2014-12-02T16:00:00Z,26.6955,-81.8138,1.67,0.73,1111122 
SCCF RECON,ioos:station:SCCF:18:1,2014-12-02T17:00:00Z,26.6955,-81.8138,1.689,0.83,1111122 
SCCF RECON,ioos:station:SCCF:18:1,2014-12-02T18:00:00Z,26.6955,-81.8138,1.73,0.87,1111122 
SCCF RECON,ioos:station:SCCF:18:1,2014-12-02T19:00:00Z,26.6955,-81.8138,1.753,0.95,1111122 
SCCF RECON,ioos:station:SCCF:18:1,2014-12-02T20:00:00Z,26.6955,-81.8138,1.71,0.66,1111122 
SCCF RECON,ioos:station:SCCF:18:1,2014-12-02T21:00:00Z,26.6955,-81.8138,1.65,0.63,1111122 
SCCF RECON,ioos:station:SCCF:18:1,2014-12-02T22:00:00Z,26.6955,-81.8138,1.59,0.62,1111122 
SCCF RECON,ioos:station:SCCF:18:1,2014-12-02T23:00:00Z,26.6955,-81.8138,1.55,0.59,1111122 
SCCF RECON,ioos:station:SCCF:18:1,2014-12-03T00:00:00Z,26.6955,-81.8138,1.56,0.6,1111122 
SCCF RECON,ioos:station:SCCF:18:1,2014-12-03T01:00:00Z,26.6955,-81.8138,1.63,0.64,1111122 
SCCF RECON,ioos:station:SCCF:18:1,2014-12-03T02:00:00Z,26.6955,-81.8138,1.73,1.38,1111122 
SCCF RECON,ioos:station:SCCF:18:1,2014-12-03T03:00:00Z,26.6955,-81.8138,1.8,1.18,1111122 
SCCF RECON,ioos:station:SCCF:18:1,2014-12-03T04:00:00Z,26.6955,-81.8138,1.86,1.41,1111122 
SCCF RECON,ioos:station:SCCF:18:1,2014-12-03T05:00:00Z,26.6955,-81.8138,1.891,1.66,1111122 
SCCF RECON,ioos:station:SCCF:18:1,2014-12-03T06:00:00Z,26.6955,-81.8138,1.927,1.43,1111122 
SCCF RECON,ioos:station:SCCF:18:1,2014-12-03T07:00:00Z,26.6955,-81.8138,1.89,1.12,1111122 
SCCF RECON,ioos:station:SCCF:18:1,2014-12-03T08:00:00Z,26.6955,-81.8138,1.801,0.81,1111122 
SCCF RECON,ioos:station:SCCF:18:1,2014-12-03T09:00:00Z,26.6955,-81.8138,1.72,0.81,1111122 
SCCF RECON,ioos:station:SCCF:18:1,2014-12-03T10:00:00Z,26.6955,-81.8138,1.65,0.95,1111122 
SCCF RECON,ioos:station:SCCF:18:1,2014-12-03T11:00:00Z,26.6955,-81.8138,1.6,1.09,1111122 
SCCF RECON,ioos:station:SCCF:18:1,2014-12-03T12:00:00Z,26.6955,-81.8138,1.544,0.75,1111122 
SCCF RECON,ioos:station:SCCF:18:1,2014-12-03T13:00:00Z,26.6955,-81.8138,1.53,0.61,1111122 
SCCF RECON,ioos:station:SCCF:18:1,2014-12-03T14:00:00Z,26.6955,-81.8138,1.5,0.84,1111122 
SCCF RECON,ioos:station:SCCF:18:1,2014-12-03T15:00:00Z,26.6955,-81.8138,1.54,0.69,1111122 
SCCF RECON,ioos:station:SCCF:18:1,2014-12-03T16:00:00Z,26.6955,-81.8138,1.6,0.79,1111122 
SCCF RECON,ioos:station:SCCF:18:1,2014-12-03T17:00:00Z,26.6955,-81.8138,1.626,0.98,1111122 
SCCF RECON,ioos:station:SCCF:18:1,2014-12-03T18:00:00Z,26.6955,-81.8138,1.67,1.04,1111122 
SCCF RECON,ioos:station:SCCF:18:1,2014-12-03T19:00:00Z,26.6955,-81.8138,1.71,0.96,1111122 
SCCF RECON,ioos:station:SCCF:18:1,2014-12-03T20:00:00Z,26.6955,-81.8138,1.709,1.22,1111122 
SCCF RECON,ioos:station:SCCF:18:1,2014-12-03T21:00:00Z,26.6955,-81.8138,1.659,0.84,1111122 
SCCF RECON,ioos:station:SCCF:18:1,2014-12-03T22:00:00Z,26.6955,-81.8138,1.591,0.79,1111122 
SCCF RECON,ioos:station:SCCF:18:1,2014-12-03T23:00:00Z,26.6955,-81.8138,1.551,0.93,1111122 
SCCF RECON,ioos:station:SCCF:18:1,2014-12-04T00:00:00Z,26.6955,-81.8138,1.54,0.82,1111122 
SCCF RECON,ioos:station:SCCF:18:1,2014-12-04T01:00:00Z,26.6955,-81.8138,1.54,0.92,1111122 
SCCF RECON,ioos:station:SCCF:18:1,2014-12-04T02:00:00Z,26.6955,-81.8138,1.61,1.15,1111122 
SCCF RECON,ioos:station:SCCF:18:1,2014-12-04T03:00:00Z,26.6955,-81.8138,1.71,1.98,1111122 
SCCF RECON,ioos:station:SCCF:18:1,2014-12-04T04:00:00Z,26.6955,-81.8138,1.79,2.7,1111122 
SCCF RECON,ioos:station:SCCF:18:1,2014-12-04T05:00:00Z,26.6955,-81.8138,1.84,2.57,1111122 
SCCF RECON,ioos:station:SCCF:18:1,2014-12-04T06:00:00Z,26.6955,-81.8138,1.879,2.58,1111122 
SCCF RECON,ioos:station:SCCF:18:1,2014-12-04T07:00:00Z,26.6955,-81.8138,1.898,2.68,1111122 
SCCF RECON,ioos:station:SCCF:18:1,2014-12-04T08:00:00Z,26.6955,-81.8138,1.838,1.56,1111122 
SCCF RECON,ioos:station:SCCF:18:1,2014-12-04T09:00:00Z,26.6955,-81.8138,1.74,1.32,1111122 
SCCF RECON,ioos:station:SCCF:18:1,2014-12-04T10:00:00Z,26.6955,-81.8138,1.669,1.05,1111122 
SCCF RECON,ioos:station:SCCF:18:1,2014-12-04T11:00:00Z,26.6955,-81.8138,1.613,0.95,1111122 
SCCF RECON,ioos:station:SCCF:18:1,2014-12-04T12:00:00Z,26.6955,-81.8138,1.561,1.29,1111122 
SCCF RECON,ioos:station:SCCF:18:1,2014-12-04T13:00:00Z,26.6955,-81.8138,1.52,1.01,1111122 
SCCF RECON,ioos:station:SCCF:18:1,2014-12-04T14:00:00Z,26.6955,-81.8138,1.46,0.98,1111122 
SCCF RECON,ioos:station:SCCF:18:1,2014-12-04T15:00:00Z,26.6955,-81.8138,1.43,1.11,1111122 
SCCF RECON,ioos:station:SCCF:18:1,2014-12-04T16:00:00Z,26.6955,-81.8138,1.46,0.99,1111122 
SCCF RECON,ioos:station:SCCF:18:1,2014-12-04T17:00:00Z,26.6955,-81.8138,1.513,1.38,1111122 
SCCF RECON,ioos:station:SCCF:18:1,2014-12-04T18:00:00Z,26.6955,-81.8138,1.578,1.58,1111122 
SCCF RECON,ioos:station:SCCF:18:1,2014-12-04T19:00:00Z,26.6955,-81.8138,1.61,1.44,1111122 
SCCF RECON,ioos:station:SCCF:18:1,2014-12-04T20:00:00Z,26.6955,-81.8138,1.63,1.12,1111122 
SCCF RECON,ioos:station:SCCF:18:1,2014-12-04T21:00:00Z,26.6955,-81.8138,1.62,0.9,1111122 
SCCF RECON,ioos:station:SCCF:18:1,2014-12-04T22:00:00Z,26.6955,-81.8138,1.593,1.19,1111122 
SCCF RECON,ioos:station:SCCF:18:1,2014-12-04T23:00:00Z,26.6955,-81.8138,1.56,1.14,1111122 
SCCF RECON,ioos:station:SCCF:18:1,2014-12-05T00:00:00Z,26.6955,-81.8138,1.52,1.24,1111122 
SCCF RECON,ioos:station:SCCF:18:1,2014-12-05T01:00:00Z,26.6955,-81.8138,1.49,1.2,1111122 
SCCF RECON,ioos:station:SCCF:18:1,2014-12-05T02:00:00Z,26.6955,-81.8138,1.509,1.04,1111122 
SCCF RECON,ioos:station:SCCF:18:1,2014-12-05T03:00:00Z,26.6955,-81.8138,1.59,2.7,1111122 
SCCF RECON,ioos:station:SCCF:18:1,2014-12-05T04:00:00Z,26.6955,-81.8138,1.69,2.45,1111122 
SCCF RECON,ioos:station:SCCF:18:1,2014-12-05T05:00:00Z,26.6955,-81.8138,1.76,2.81,1111122 
SCCF RECON,ioos:station:SCCF:18:1,2014-12-05T06:00:00Z,26.6955,-81.8138,1.81,3.0,1111122 
SCCF RECON,ioos:station:SCCF:18:1,2014-12-05T07:00:00Z,26.6955,-81.8138,1.85,2.94,1111122 
SCCF RECON,ioos:station:SCCF:18:1,2014-12-05T08:00:00Z,26.6955,-81.8138,1.85,3.08,1111122 
SCCF RECON,ioos:station:SCCF:18:1,2014-12-05T09:00:00Z,26.6955,-81.8138,1.78,2.13,1111122 
SCCF RECON,ioos:station:SCCF:18:1,2014-12-05T10:00:00Z,26.6955,-81.8138,1.69,1.67,1111122 
SCCF RECON,ioos:station:SCCF:18:1,2014-12-05T11:00:00Z,26.6955,-81.8138,1.62,1.95,1111122 
SCCF RECON,ioos:station:SCCF:18:1,2014-12-05T12:00:00Z,26.6955,-81.8138,1.58,1.39,1111122 
SCCF RECON,ioos:station:SCCF:18:1,2014-12-05T13:00:00Z,26.6955,-81.8138,1.53,1.41,1111122 
SCCF RECON,ioos:station:SCCF:18:1,2014-12-05T14:00:00Z,26.6955,-81.8138,1.479,1.26,1111122 
SCCF RECON,ioos:station:SCCF:18:1,2014-12-05T15:00:00Z,26.6955,-81.8138,1.44,1.19,1111122 
SCCF RECON,ioos:station:SCCF:18:1,2014-12-05T16:00:00Z,26.6955,-81.8138,1.46,1.48,1111122 
SCCF RECON,ioos:station:SCCF:18:1,2014-12-05T17:00:00Z,26.6955,-81.8138,1.53,1.61,1111122 
SCCF RECON,ioos:station:SCCF:18:1,2014-12-05T18:00:00Z,26.6955,-81.8138,1.601,1.87,1111122 
SCCF RECON,ioos:station:SCCF:18:1,2014-12-05T19:00:00Z,26.6955,-81.8138,1.66,1.8,1111122 
SCCF RECON,ioos:station:SCCF:18:1,2014-12-05T20:00:00Z,26.6955,-81.8138,1.708,1.82,1111122 
SCCF RECON,ioos:station:SCCF:18:1,2014-12-05T21:00:00Z,26.6955,-81.8138,1.76,2.38,1111122 
SCCF RECON,ioos:station:SCCF:18:1,2014-12-05T22:00:00Z,26.6955,-81.8138,1.78,1.6,1111122 
SCCF RECON,ioos:station:SCCF:18:1,2014-12-05T23:00:00Z,26.6955,-81.8138,1.75,1.66,1111122 
SCCF RECON,ioos:station:SCCF:18:1,2014-12-06T00:00:00Z,26.6955,-81.8138,1.7,1.63,1111122 
SCCF RECON,ioos:station:SCCF:18:1,2014-12-06T01:00:00Z,26.6955,-81.8138,1.66,1.64,1111122 
SCCF RECON,ioos:station:SCCF:18:1,2014-12-06T02:00:00Z,26.6955,-81.8138,1.65,1.68,1111122 
SCCF RECON,ioos:station:SCCF:18:1,2014-12-06T03:00:00Z,26.6955,-81.8138,1.713,1.77,1111122 
SCCF RECON,ioos:station:SCCF:18:1,2014-12-06T04:00:00Z,26.6955,-81.8138,1.81,2.57,1111122 
SCCF RECON,ioos:station:SCCF:18:1,2014-12-06T05:00:00Z,26.6955,-81.8138,1.89,2.05,1111122 
SCCF RECON,ioos:station:SCCF:18:1,2014-12-06T06:00:00Z,26.6955,-81.8138,1.93,2.51,1111122 
SCCF RECON,ioos:station:SCCF:18:1,2014-12-06T07:00:00Z,26.6955,-81.8138,1.97,2.81,1111122 
SCCF RECON,ioos:station:SCCF:18:1,2014-12-06T08:00:00Z,26.6955,-81.8138,1.99,3.24,1111122 
SCCF RECON,ioos:station:SCCF:18:1,2014-12-06T09:00:00Z,26.6955,-81.8138,1.943,2.15,1111122 
SCCF RECON,ioos:station:SCCF:18:1,2014-12-06T10:00:00Z,26.6955,-81.8138,1.85,1.91,1111122 
SCCF RECON,ioos:station:SCCF:18:1,2014-12-06T11:00:00Z,26.6955,-81.8138,1.77,2.68,1111122 
SCCF RECON,ioos:station:SCCF:18:1,2014-12-06T12:00:00Z,26.6955,-81.8138,1.72,2.97,1111122 
SCCF RECON,ioos:station:SCCF:18:1,2014-12-06T13:00:00Z,26.6955,-81.8138,1.66,1.66,1111122 
SCCF RECON,ioos:station:SCCF:18:1,2014-12-06T14:00:00Z,26.6955,-81.8138,1.609,1.77,1111122 
SCCF RECON,ioos:station:SCCF:18:1,2014-12-06T15:00:00Z,26.6955,-81.8138,1.541,1.81,1111122 
SCCF RECON,ioos:station:SCCF:18:1,2014-12-06T16:00:00Z,26.6955,-81.8138,1.494,2.0,1111122 
SCCF RECON,ioos:station:SCCF:18:1,2014-12-06T17:00:00Z,26.6955,-81.8138,1.494,2.02,1111122 
SCCF RECON,ioos:station:SCCF:18:1,2014-12-06T18:00:00Z,26.6955,-81.8138,1.57,1.99,1111122 
SCCF RECON,ioos:station:SCCF:18:1,2014-12-06T19:00:00Z,26.6955,-81.8138,1.649,2.4,1111122 
SCCF RECON,ioos:station:SCCF:18:1,2014-12-06T20:00:00Z,26.6955,-81.8138,1.7,2.29,1111122 
SCCF RECON,ioos:station:SCCF:18:1,2014-12-06T21:00:00Z,26.6955,-81.8138,1.73,2.26,1111122 
SCCF RECON,ioos:station:SCCF:18:1,2014-12-06T22:00:00Z,26.6955,-81.8138,1.76,2.13,1111122 
SCCF RECON,ioos:station:SCCF:18:1,2014-12-06T23:00:00Z,26.6955,-81.8138,1.74,2.34,1111122 
SCCF RECON,ioos:station:SCCF:18:1,2014-12-07T00:00:00Z,26.6955,-81.8138,1.682,2.0,1111122 
SCCF RECON,ioos:station:SCCF:18:1,2014-12-07T01:00:00Z,26.6955,-81.8138,1.621,1.93,1111122 
SCCF RECON,ioos:station:SCCF:18:1,2014-12-07T02:00:00Z,26.6955,-81.8138,1.59,2.05,1111122 
SCCF RECON,ioos:station:SCCF:18:1,2014-12-07T03:00:00Z,26.6955,-81.8138,1.59,2.26,1111122 
SCCF RECON,ioos:station:SCCF:18:1,2014-12-07T04:00:00Z,26.6955,-81.8138,1.65,2.41,1111122 
SCCF RECON,ioos:station:SCCF:18:1,2014-12-07T05:00:00Z,26.6955,-81.8138,1.741,2.82,1111122 
SCCF RECON,ioos:station:SCCF:18:1,2014-12-07T06:00:00Z,26.6955,-81.8138,1.82,2.77,1111122 
SCCF RECON,ioos:station:SCCF:18:1,2014-12-07T07:00:00Z,26.6955,-81.8138,1.86,2.75,1111122 
SCCF RECON,ioos:station:SCCF:18:1,2014-12-07T08:00:00Z,26.6955,-81.8138,1.9,2.87,1111122 
SCCF RECON,ioos:station:SCCF:18:1,2014-12-07T09:00:00Z,26.6955,-81.8138,1.9,2.58,1111122 
SCCF RECON,ioos:station:SCCF:18:1,2014-12-07T10:00:00Z,26.6955,-81.8138,1.82,2.16,1111122 
SCCF RECON,ioos:station:SCCF:18:1,2014-12-07T11:00:00Z,26.6955,-81.8138,1.73,2.07,1111122 
SCCF RECON,ioos:station:SCCF:18:1,2014-12-07T12:00:00Z,26.6955,-81.8138,1.67,2.25,1111122 
SCCF RECON,ioos:station:SCCF:18:1,2014-12-07T13:00:00Z,26.6955,-81.8138,1.62,2.05,1111122 
SCCF RECON,ioos:station:SCCF:18:1,2014-12-07T14:00:00Z,26.6955,-81.8138,1.57,1.93,1111122 
SCCF RECON,ioos:station:SCCF:18:1,2014-12-07T15:00:00Z,26.6955,-81.8138,1.5,1.92,1111122 
SCCF RECON,ioos:station:SCCF:18:1,2014-12-07T16:00:00Z,26.6955,-81.8138,1.44,1.87,1111122 
SCCF RECON,ioos:station:SCCF:18:1,2014-12-07T17:00:00Z,26.6955,-81.8138,1.394,1.82,1111122 
SCCF RECON,ioos:station:SCCF:18:1,2014-12-07T18:00:00Z,26.6955,-81.8138,1.407,1.78,1111122 
SCCF RECON,ioos:station:SCCF:18:1,2014-12-07T19:00:00Z,26.6955,-81.8138,1.48,2.27,1111122 
SCCF RECON,ioos:station:SCCF:18:1,2014-12-07T20:00:00Z,26.6955,-81.8138,1.559,2.13,1111122 
SCCF RECON,ioos:station:SCCF:18:1,2014-12-07T21:00:00Z,26.6955,-81.8138,1.601,2.23,1111122 
SCCF RECON,ioos:station:SCCF:18:1,2014-12-07T22:00:00Z,26.6955,-81.8138,1.64,2.54,1111122 
SCCF RECON,ioos:station:SCCF:18:1,2014-12-07T23:00:00Z,26.6955,-81.8138,1.66,2.14,1111122 
SCCF RECON,ioos:station:SCCF:18:1,2014-12-08T00:00:00Z,26.6955,-81.8138,1.63,1.88,1111122 
SCCF RECON,ioos:station:SCCF:18:1,2014-12-08T01:00:00Z,26.6955,-81.8138,1.578,1.87,1111122 
SCCF RECON,ioos:station:SCCF:18:1,2014-12-08T02:00:00Z,26.6955,-81.8138,1.53,1.85,1111122 
SCCF RECON,ioos:station:SCCF:18:1,2014-12-08T03:00:00Z,26.6955,-81.8138,1.52,1.88,1111122 
SCCF RECON,ioos:station:SCCF:18:1,2014-12-08T04:00:00Z,26.6955,-81.8138,1.54,1.86,1111122 
SCCF RECON,ioos:station:SCCF:18:1,2014-12-08T05:00:00Z,26.6955,-81.8138,1.63,2.14,1111122 
SCCF RECON,ioos:station:SCCF:18:1,2014-12-08T06:00:00Z,26.6955,-81.8138,1.71,2.41,1111122 
SCCF RECON,ioos:station:SCCF:18:1,2014-12-08T07:00:00Z,26.6955,-81.8138,1.77,2.07,1111122 
SCCF RECON,ioos:station:SCCF:18:1,2014-12-08T08:00:00Z,26.6955,-81.8138,1.805,2.75,1111122 
SCCF RECON,ioos:station:SCCF:18:1,2014-12-08T09:00:00Z,26.6955,-81.8138,1.821,2.19,1111122 
SCCF RECON,ioos:station:SCCF:18:1,2014-12-08T10:00:00Z,26.6955,-81.8138,1.801,2.16,1111122 
SCCF RECON,ioos:station:SCCF:18:1,2014-12-08T11:00:00Z,26.6955,-81.8138,1.73,1.82,1111122 
SCCF RECON,ioos:station:SCCF:18:1,2014-12-08T12:00:00Z,26.6955,-81.8138,1.66,2.28,1111122 
SCCF RECON,ioos:station:SCCF:18:1,2014-12-08T13:00:00Z,26.6955,-81.8138,1.6,1.91,1111122 
SCCF RECON,ioos:station:SCCF:18:1,2014-12-08T14:00:00Z,26.6955,-81.8138,1.56,1.86,1111122 
SCCF RECON,ioos:station:SCCF:18:1,2014-12-08T15:00:00Z,26.6955,-81.8138,1.51,1.83,1111122 
SCCF RECON,ioos:station:SCCF:18:1,2014-12-08T16:00:00Z,26.6955,-81.8138,1.446,1.85,1111122 
SCCF RECON,ioos:station:SCCF:18:1,2014-12-08T17:00:00Z,26.6955,-81.8138,1.39,1.85,1111122 
SCCF RECON,ioos:station:SCCF:18:1,2014-12-08T18:00:00Z,26.6955,-81.8138,1.39,1.87,1111122 
SCCF RECON,ioos:station:SCCF:18:1,2014-12-08T19:00:00Z,26.6955,-81.8138,1.47,2.11,1111122 
SCCF RECON,ioos:station:SCCF:18:1,2014-12-08T20:00:00Z,26.6955,-81.8138,1.553,2.27,1111122 
SCCF RECON,ioos:station:SCCF:18:1,2014-12-08T21:00:00Z,26.6955,-81.8138,1.61,2.06,1111122 
SCCF RECON,ioos:station:SCCF:18:1,2014-12-08T22:00:00Z,26.6955,-81.8138,1.66,2.37,1111122 
SCCF RECON,ioos:station:SCCF:18:1,2014-12-08T23:00:00Z,26.6955,-81.8138,1.71,2.69,1111122 
SCCF RECON,ioos:station:SCCF:18:1,2014-12-09T00:00:00Z,26.6955,-81.8138,1.71,2.53,1111122 
SCCF RECON,ioos:station:SCCF:18:1,2014-12-09T01:00:00Z,26.6955,-81.8138,1.67,2.14,1111122 
SCCF RECON,ioos:station:SCCF:18:1,2014-12-09T02:00:00Z,26.6955,-81.8138,1.61,2.04,1111122 
SCCF RECON,ioos:station:SCCF:18:1,2014-12-09T03:00:00Z,26.6955,-81.8138,1.57,1.93,1111122 
SCCF RECON,ioos:station:SCCF:18:1,2014-12-09T04:00:00Z,26.6955,-81.8138,1.541,1.87,1111122 
SCCF RECON,ioos:station:SCCF:18:1,2014-12-09T05:00:00Z,26.6955,-81.8138,1.56,1.86,1111122 
SCCF RECON,ioos:station:SCCF:18:1,2014-12-09T06:00:00Z,26.6955,-81.8138,1.641,2.36,1111122 
SCCF RECON,ioos:station:SCCF:18:1,2014-12-09T07:00:00Z,26.6955,-81.8138,1.72,2.46,1111122 
SCCF RECON,ioos:station:SCCF:18:1,2014-12-09T08:00:00Z,26.6955,-81.8138,1.771,2.28,1111122 
SCCF RECON,ioos:station:SCCF:18:1,2014-12-09T09:00:00Z,26.6955,-81.8138,1.807,2.49,1111122 
SCCF RECON,ioos:station:SCCF:18:1,2014-12-09T10:00:00Z,26.6955,-81.8138,1.811,2.31,1111122 
SCCF RECON,ioos:station:SCCF:18:1,2014-12-09T11:00:00Z,26.6955,-81.8138,1.76,2.03,1111122 
SCCF RECON,ioos:station:SCCF:18:1,2014-12-09T12:00:00Z,26.6955,-81.8138,1.68,1.83,1111122 
SCCF RECON,ioos:station:SCCF:18:1,2014-12-09T13:00:00Z,26.6955,-81.8138,1.62,1.78,1111122 
SCCF RECON,ioos:station:SCCF:18:1,2014-12-09T14:00:00Z,26.6955,-81.8138,1.57,1.82,1111122 
SCCF RECON,ioos:station:SCCF:18:1,2014-12-09T15:00:00Z,26.6955,-81.8138,1.52,1.81,1111122 
SCCF RECON,ioos:station:SCCF:18:1,2014-12-09T16:00:00Z,26.6955,-81.8138,1.46,1.86,1111122 
SCCF RECON,ioos:station:SCCF:18:1,2014-12-09T17:00:00Z,26.6955,-81.8138,1.4,1.79,1111122 
SCCF RECON,ioos:station:SCCF:18:1,2014-12-09T18:00:00Z,26.6955,-81.8138,1.351,1.65,1111122 
SCCF RECON,ioos:station:SCCF:18:1,2014-12-09T19:00:00Z,26.6955,-81.8138,1.36,1.64,1111122 
SCCF RECON,ioos:station:SCCF:18:1,2014-12-09T20:00:00Z,26.6955,-81.8138,1.432,2.15,1111122 
SCCF RECON,ioos:station:SCCF:18:1,2014-12-09T21:00:00Z,26.6955,-81.8138,1.51,2.43,1111122 
SCCF RECON,ioos:station:SCCF:18:1,2014-12-09T22:00:00Z,26.6955,-81.8138,1.55,2.08,1111122 
SCCF RECON,ioos:station:SCCF:18:1,2014-12-09T23:00:00Z,26.6955,-81.8138,1.57,1.99,1111122 
SCCF RECON,ioos:station:SCCF:18:1,2014-12-10T00:00:00Z,26.6955,-81.8138,1.57,2.09,1111122 
SCCF RECON,ioos:station:SCCF:18:1,2014-12-10T01:00:00Z,26.6955,-81.8138,1.54,1.87,1111122 
SCCF RECON,ioos:station:SCCF:18:1,2014-12-10T02:00:00Z,26.6955,-81.8138,1.51,1.79,1111122 
SCCF RECON,ioos:station:SCCF:18:1,2014-12-10T03:00:00Z,26.6955,-81.8138,1.47,1.73,1111122 
SCCF RECON,ioos:station:SCCF:18:1,2014-12-10T04:00:00Z,26.6955,-81.8138,1.44,1.71,1111122 
SCCF RECON,ioos:station:SCCF:18:1,2014-12-10T05:00:00Z,26.6955,-81.8138,1.41,1.7,1111122 
SCCF RECON,ioos:station:SCCF:18:1,2014-12-10T06:00:00Z,26.6955,-81.8138,1.42,1.67,1111122 
SCCF RECON,ioos:station:SCCF:18:1,2014-12-10T07:00:00Z,26.6955,-81.8138,1.48,1.96,1111122 
SCCF RECON,ioos:station:SCCF:18:1,2014-12-10T08:00:00Z,26.6955,-81.8138,1.55,2.0,1111122 
SCCF RECON,ioos:station:SCCF:18:1,2014-12-10T09:00:00Z,26.6955,-81.8138,1.59,1.97,1111122 
SCCF RECON,ioos:station:SCCF:18:1,2014-12-10T10:00:00Z,26.6955,-81.8138,1.62,2.03,1111122 
SCCF RECON,ioos:station:SCCF:18:1,2014-12-10T11:00:00Z,26.6955,-81.8138,1.62,1.86,1111122 
SCCF RECON,ioos:station:SCCF:18:1,2014-12-10T12:00:00Z,26.6955,-81.8138,1.564,1.85,1111122 
SCCF RECON,ioos:station:SCCF:18:1,2014-12-10T13:00:00Z,26.6955,-81.8138,1.5,1.67,1111122 
SCCF RECON,ioos:station:SCCF:18:1,2014-12-10T14:00:00Z,26.6955,-81.8138,1.46,1.76,1111122 
SCCF RECON,ioos:station:SCCF:18:1,2014-12-10T15:00:00Z,26.6955,-81.8138,1.42,1.7,1111122 
SCCF RECON,ioos:station:SCCF:18:1,2014-12-10T16:00:00Z,26.6955,-81.8138,1.37,1.71,1111122 
SCCF RECON,ioos:station:SCCF:18:1,2014-12-10T17:00:00Z,26.6955,-81.8138,1.32,1.67,1111122 
SCCF RECON,ioos:station:SCCF:18:1,2014-12-10T18:00:00Z,26.6955,-81.8138,1.28,1.7,1111122 
SCCF RECON,ioos:station:SCCF:18:1,2014-12-10T19:00:00Z,26.6955,-81.8138,1.29,1.68,1111122 
SCCF RECON,ioos:station:SCCF:18:1,2014-12-10T20:00:00Z,26.6955,-81.8138,1.38,2.18,1111122 
SCCF RECON,ioos:station:SCCF:18:1,2014-12-10T21:00:00Z,26.6955,-81.8138,1.46,2.17,1111122 
SCCF RECON,ioos:station:SCCF:18:1,2014-12-10T22:00:00Z,26.6955,-81.8138,1.53,2.14,1111122 
SCCF RECON,ioos:station:SCCF:18:1,2014-12-10T23:00:00Z,26.6955,-81.8138,1.581,2.23,1111122 
SCCF RECON,ioos:station:SCCF:18:1,2014-12-11T00:00:00Z,26.6955,-81.8138,1.64,2.38,1111122 
SCCF RECON,ioos:station:SCCF:18:1,2014-12-11T01:00:00Z,26.6955,-81.8138,1.657,2.21,1111122 
SCCF RECON,ioos:station:SCCF:18:1,2014-12-11T02:00:00Z,26.6955,-81.8138,1.65,2.15,1111122 
SCCF RECON,ioos:station:SCCF:18:1,2014-12-11T03:00:00Z,26.6955,-81.8138,1.63,2.25,1111122 
SCCF RECON,ioos:station:SCCF:18:1,2014-12-11T04:00:00Z,26.6955,-81.8138,1.59,2.01,1111122 
SCCF RECON,ioos:station:SCCF:18:1,2014-12-11T05:00:00Z,26.6955,-81.8138,1.58,1.84,1111122 
SCCF RECON,ioos:station:SCCF:18:1,2014-12-11T06:00:00Z,26.6955,-81.8138,1.62,1.92,1111122 
SCCF RECON,ioos:station:SCCF:18:1,2014-12-11T07:00:00Z,26.6955,-81.8138,1.69,2.3,1111122 
SCCF RECON,ioos:station:SCCF:18:1,2014-12-11T08:00:00Z,26.6955,-81.8138,1.742,2.2,1111122 
SCCF RECON,ioos:station:SCCF:18:1,2014-12-11T09:00:00Z,26.6955,-81.8138,1.79,2.18,1111122 
SCCF RECON,ioos:station:SCCF:18:1,2014-12-11T10:00:00Z,26.6955,-81.8138,1.83,2.28,1111122 
SCCF RECON,ioos:station:SCCF:18:1,2014-12-11T11:00:00Z,26.6955,-81.8138,1.846,2.27,1111122 
SCCF RECON,ioos:station:SCCF:18:1,2014-12-11T12:00:00Z,26.6955,-81.8138,1.806,1.85,1111122 
SCCF RECON,ioos:station:SCCF:18:1,2014-12-11T13:00:00Z,26.6955,-81.8138,1.737,1.73,1111122 
SCCF RECON,ioos:station:SCCF:18:1,2014-12-11T14:00:00Z,26.6955,-81.8138,1.67,1.76,1111122 
SCCF RECON,ioos:station:SCCF:18:1,2014-12-11T15:00:00Z,26.6955,-81.8138,1.62,1.78,1111122 
SCCF RECON,ioos:station:SCCF:18:1,2014-12-11T16:00:00Z,26.6955,-81.8138,1.577,1.73,1111122 
SCCF RECON,ioos:station:SCCF:18:1,2014-12-11T17:00:00Z,26.6955,-81.8138,1.52,1.71,1111122 
SCCF RECON,ioos:station:SCCF:18:1,2014-12-11T18:00:00Z,26.6955,-81.8138,1.46,1.78,1111122 
SCCF RECON,ioos:station:SCCF:18:1,2014-12-11T19:00:00Z,26.6955,-81.8138,1.431,1.81,1111122 
SCCF RECON,ioos:station:SCCF:18:1,2014-12-11T20:00:00Z,26.6955,-81.8138,1.487,1.84,1111122 
SCCF RECON,ioos:station:SCCF:18:1,2014-12-11T21:00:00Z,26.6955,-81.8138,1.574,1.99,1111122 